Regional Weather Roundup
Issued by NWS Pendleton, OR

Home | Current Version | Previous Version | Text Only | Print | Product List | Glossary On
Versions: 1 2 3 4 5 6 7 8 9 10 11 12 13 14 15 16 17 18 19 20 21 22 23 24 25 26 27 28 29 30 31 32 33 34 35 36 37 38 39 40 41 42 43 44 45 46 47 48 49 50
000
ASUS46 KPDT 302025
RWRPDT
PENDLETON REGIONAL WEATHER ROUNDUP
NATIONAL WEATHER SERVICE PENDLETON OREGON
1200 PM PST FRI JAN 30 2015

NOTE: FAIR INDICATES FEW OR NO CLOUDS BELOW 12,000 FEET WITH NO
SIGNIFICANT WEATHER AND/OR OBSTRUCTIONS TO VISIBILITY.

# INDICATES UNOFFICIAL STATION AND DATA

WAZ520-302110-
EAST SLOPES OF WASHINGTON CASCADES

CITY            SKY/WX      TMP DP  RH  WIND    PRES   REMARKS
#BUMPING DAM    N/A         31  N/A N/A CALM    N/A
#CLE ELUM HS    N/A         33  28  82  CALM    30.29F
#CLE ELUM LAKE  N/A         29  27  92  CALM    30.42F
#CLIFFDEL 2NW   N/A         30  29  96  CALM    N/A
#GLENWOOD       N/A         35  32  89  CALM    30.42F
#MANASTASH CYN  N/A         31  27  85  CALM    30.26F
#NELSON         N/A         31  29  92  CALM    30.46F
#NELSON 3SW     N/A         27  26  96  CALM    30.66F
#NILE           N/A         32  30  92  CALM    29.67F
#RONALD 2NW     N/A         31  23  72  CALM    30.16F
#SNOWDEN        N/A         31  29  92  CALM    N/A
#TEANAWAY 4NE   N/A         33  32  96  CALM    N/A
#TROUT LAKE 1NE N/A         34  32  92  CALM    30.43F
$$

WAZ521-302110-
SIMCOE HIGHLANDS

CITY            SKY/WX      TMP DP  RH  WIND    PRES   REMARKS
#BICKLETON HS   N/A         29  29  100 CALM    N/A
#CENTERVILLE 4W N/A         35  33  92  E3      30.10F
#CENTERVILLE 1SWN/A         33  30  89  E1      30.42F
#GOLDENDALE     N/A         34  32  92  CALM    N/A
#GOLDENDALE 1NE N/A         34  28  78  CALM    N/A
#GOLDENDALE 1S  N/A         31  30  96  CALM    30.33F
#GOLDENDALE 5WNWN/A         34  32  92  CALM    30.42F
#GOODNOE HILLS  N/A         36  30  79  NW2     N/A
#LYLE 6NE       N/A         34  32  92  E1      30.41F
$$

WAZ026-302110-
KITTITAS VALLEY

CITY            SKY/WX      TMP DP  RH  WIND    PRES   REMARKS
ELLENSBURG AP   CLOUDY      37  31  79  S5      30.36F
#ELLENSBURG CWU N/A         35  32  89  SE3     30.38F
#ELLENSBURG 3NE N/A         34  33  96  CALM    30.35F
#KITTITAS 4N    N/A         36  33  89  CALM    28.65F
#KITTITAS 3S    N/A         35  34  96  CALM    30.41F
#THORP 6N       N/A         31  30  96  E1      30.46F
$$

WAZ027-302110-
YAKIMA VALLEY

CITY            SKY/WX      TMP DP  RH  WIND    PRES   REMARKS
SUNNYSIDE AP    CLOUDY      36  32  85  S6      30.43F
YAKIMA AIRPORT  CLOUDY      39  31  73  CALM    30.41F
YAKIMA-VAGABOND CLOUDY      36  34  92  W3      30.38F
#DONALD 2NE     N/A         38  33  82  E1      29.24F
#MABTON         N/A         38  35  89  SE3     30.42F
#MOXEE 2E       N/A         37  32  82  S3      30.34F
#NACHES 2SW     N/A         34  32  92  CALM    30.37F
#OUTLOOK DOT    N/A         N/A N/A N/A SW2     N/A
#SELAH 8E       N/A         33  33  100 S1      N/A
#TERRACE HTS    N/A         36  34  92  CALM    30.42F
#TOPPENISH      N/A         38  34  85  CALM    30.36F
#WAPATO 4NE     N/A         38  33  82  E1      29.24F
#WEST VALLEY    N/A         36  32  85  CALM    30.43F
#W YAKIMA       N/A         36  32  85  NE2     30.44F
#WHITE SWAN 5E  N/A         38  34  85  SW1     30.45F
$$

WAZ028-302110-
LOWER COLUMBIA BASIN...WASHINGTON

CITY            SKY/WX      TMP DP  RH  WIND    PRES   REMARKS
HANFORD         CLOUDY      38  35  89  S6      30.42F
PASCO           CLOUDY      40  36  85  W5      30.45F
PROSSER AWOS    N/A         39  36  89  SW6     30.44F
RICHLAND AWOS   CLOUDY      39  36  89  W5      30.46F
#BASIN CITY 5SW N/A         39  38  96  SW1     30.43F
#BENTON CITY    N/A         37  35  92  W6      30.37F
#CONNELL 5N     N/A         35  34  96  SE2     30.45F
#CONNELL 5NW    N/A         36  35  96  E2      30.42F
#ELTOPIA 6NW    N/A         37  36  96  CALM    29.38F
#KAHLOTUS       N/A         35  34  96  W2      30.45F
#KENNEWICK 3S   N/A         37  36  96  CALM    30.47F
#PATERSON       N/A         38  36  92  CALM    30.45F
#PROSSER        N/A         37  33  85  W1      30.45F
#SAGEMOOR 2W    N/A         38  35  89  CALM    30.30F
#TOUCHET 2S     N/A         37  36  96  CALM    30.45F
#WEST PASCO     N/A         41  38  89  CALM    30.44F
$$

WAZ029-302110-
FOOTHILLS OF THE BLUES...WASHINGTON

CITY            SKY/WX      TMP DP  RH  WIND    PRES   REMARKS
WALLA WALLA AP  CLOUDY      37  33  85  S7      30.41F FOG
#DAYTON SCHOOL  N/A         34  28  78  SW1     30.38F
#LOWDEN 2SE     N/A         38  36  92  CALM    30.40F
#PLEASANT VIEW 1N/A         32  32  100 CALM    30.50F
#PRESCOTT       N/A         37  35  92  CALM    30.45F
#SUDBURY        N/A         42  N/A N/A CALM    N/A
#WHITMAN COLLEGEN/A         36  34  92  CALM    30.51F
#WAITSBURG 5S   N/A         33  33  100 S3      30.56F
#WAITSBURG 8N   N/A         33  21  61  S5      30.24F
#WALLA WALLA 5E N/A         36  34  92  S3      N/A
#WALLA WALLA U  N/A         38  36  92  S1      30.46F
#WHITMAN MISSIONN/A         38  36  92  CALM    30.47F
$$

WAZ030-302110-
BLUE MOUNTAINS...WASHINGTON

CITY            SKY/WX      TMP DP  RH  WIND    PRES   REMARKS
#DIXIE 5SE      N/A         28  27  96  CALM    30.26F
#SKI BLUEWOOD   N/A         42  30  62  S1      30.22F
$$

ORZ009-041-WAZ024-302110-
COLUMBIA RIVER GORGE

CITY            SKY/WX      TMP DP  RH  WIND    PRES   REMARKS
HOOD RIVER AP   CLOUDY      39  34  82  E3      30.43F
THE DALLES AP   CLOUDY      41  34  76  E6      30.44F
#ARLINGTON AIRPON/A         37  35  92  CALM    30.02S
#ARLINGTON HS   N/A         40  35  82  CALM    30.38F
#CELILO DOT     N/A         41  33  73  CALM    N/A
#LYLE           N/A         41  36  82  SE5     30.46F
#MOSIER 1S      N/A         38  32  79  CALM    30.41F
#MURDOCK        N/A         42  37  82  E2      30.46F
#RUFUS DOT      N/A         40  34  79  CALM    N/A

$$

ORZ510-302110-
NORTH CENTRAL OREGON

CITY            SKY/WX      TMP DP  RH  WIND    PRES   REMARKS
#CHENOWITH 1W   N/A         33  33  100 E9      N/A
#COW CYN RST AREN/A         32  32  100 S1      N/A
#DUFUR 9E       N/A         31  31  100 E5      30.50F
#GRASS VALLEY 1SN/A         32  31  96  CALM    30.47F
#KENT DOT       N/A         32  29  89  S2      N/A
#MAUPIN SCHOOL  N/A         40  33  76  CALM    30.40F
#MORO SCHOOL    N/A         33  33  100 CALM    30.37F
#SHANIKO 5WSW   N/A         31  28  88  S3      N/A
#SHANIKO 4NW    N/A         32  32  100 S2      30.29F
#TYGH VALLEY 2NEN/A         39  33  79  CALM    30.43F
#WAPANITIA AIRPON/A         35  32  89  CALM    30.45F
#WASCO DOT      N/A         37  31  79  E3      N/A
#WASCO 5NE      N/A         34  32  92  CALM    30.45F
$$

ORZ511-302110-
CENTRAL OREGON

CITY            SKY/WX      TMP DP  RH  WIND    PRES   REMARKS
BEND AIRPORT    CLOUDY      32  32  100 CALM    30.32F
MADRAS AIRPORT  N/A         36  34  92  SW3     30.37F
PRINEVILLE AP   CLOUDY      36  34  92  CALM    30.32F
REDMOND AIRPORT CLOUDY      34  32  92  CALM    30.33F
#BEND 1SW       N/A         33  33  100 NE1     N/A
#BEND-AWBREY    N/A         35  34  96  N1      30.38F
#BEND-KIM LN    N/A         34  33  96  CALM    30.28F
#CROOKED RVR RANN/A         36  34  92  NE7     30.41F
#CULVER         N/A         35  33  92  CALM    30.30F
#LAKE BILLY CHINN/A         37  29  72  CALM    30.40F
#POWELL BUTTE 3EN/A         34  33  96  W2      N/A
#POWELL BUTTE   N/A         36  33  89  W1      29.91F
#PRINEVILLE 3N  N/A         36  34  92  W1      30.34F
#WARM SPRINGS   N/A         40  34  79  S1      30.34F

$$


ORZ509-302110-
EAST SLOPES OF OREGON CASCADES

CITY            SKY/WX      TMP DP  RH  WIND    PRES   REMARKS
#BLUE BOX PASS  N/A         38  -12 11  CALM    N/A
#CAMP SHERMAN   N/A         38  33  82  CALM    30.42F
#LA PINE DOT    N/A         33  32  96  NW2     N/A
#LA PINE 4NW    N/A         33  31  92  CALM    30.40F
#LAVA BUTTE DOT N/A         33  32  96  CALM    N/A
#MT BACHELOR-MIDN/A         35   2  24  NE17G25 N/A    WCI 25
#SISTERS AIRPOR N/A         34  34  100 CALM    30.17S
#SISTERS ODOT   N/A         34  N/A N/A CALM    N/A
#SISTERS 3N     N/A         36  31  82  CALM    30.31F
#SUNRIVER       N/A         34  34  100 W1      30.25F
#TUMALO 3W      N/A         32  31  96  CALM    30.29F
#WANOGA BUTTE D N/A         44   7  21  E8      N/A

$$

ORZ044-302110-
LOWER COLUMBIA BASIN...OREGON

CITY            SKY/WX      TMP DP  RH  WIND    PRES   REMARKS
HERMISTON       CLOUDY      38  35  89  NW3     30.43F FOG
#BOARDMAN SCHOOLN/A         40  35  82  CALM    30.44F
#BOARDMAN 8SW   N/A         38  36  92  CALM    30.45F
#ECHO 8SW       N/A         38  38  100 CALM    30.40F
#IONE SCHOOL    N/A         37  25  61  CALM    30.40F
#IRRIGON 4NW    N/A         39  39  100 S1      N/A
#UMATILLA SCHOOLN/A         36  36  100 NW2     30.47F
#UMATILLA       N/A         40  36  85  SW1     30.42F
$$

ORZ507-302110-
NORTHERN FOOTHILLS OF THE BLUES

CITY            SKY/WX      TMP DP  RH  WIND    PRES   REMARKS
PENDLETON AIRPT CLOUDY      34  30  85  S3      30.39F
#ADAMS 3WNW     N/A         34  32  92  SW5     30.46F
#ATHENA         N/A         33  31  92  SW1     30.48F
#CAYUSE         N/A         35  31  85  CALM    30.46F
#HELIX SCHOOL   N/A         34  33  96  S2      30.44F
#HELIX 3N       N/A         33  32  96  W1      30.32F
#HELIX 6SW      N/A         34  32  92  S1      30.37F
#HOLDMAN 5SE    N/A         35  33  92  CALM    30.39F
#HOLDMAN 6E     N/A         33  33  100 CALM    30.27F
#M-F FERNDALE   N/A         38  34  85  CALM    30.41F
#M-F GROVE ELEM N/A         37  31  79  CALM    30.39F
#M-FREEWATER 5SEN/A         36  32  85  SW1     30.38F
#PENDLETON DNTN N/A         38  33  82  CALM    29.20F
#PDT AQUATIC CTRN/A         38  35  89  CALM    30.40S
#PENDLETON 5NE  N/A         35  33  92  CALM    30.35F
#PDT SUNRIDGE   N/A         37  32  82  CALM    30.42F
#PENDLETON 7NW  N/A         36  32  85  CALM    26.69F
#PILOT ROCK     N/A         35  29  78  CALM    30.39F
#TUTUILLA       N/A         36  32  85  CALM    30.44F
#UMAPINE 2E     N/A         38  36  92  CALM    30.40F
#WESTON SCHOOL  N/A         32  30  92  CALM    30.36F

$$

ORZ508-302110-
SOUTHERN FOOTHILLS OF THE BLUES

CITY            SKY/WX      TMP DP  RH  WIND    PRES   REMARKS
LEXINGTON       CLOUDY      36  34  92  E5      30.40F
#AJAX           N/A         32  27  82  CALM    30.27F
#CONDON SCHOOL  N/A         31  30  96  CALM    30.27F
#CONDON 5W      N/A         30  29  96  CALM    30.28F
#HEPPNER EOC    N/A         34  31  89  SW3     30.41F
#HEPPNER 4NE    N/A         30  29  96  CALM    30.45F
#LEXINGTON 2SE  N/A         37  31  79  SW1     30.35F
#MIKKALO        N/A         35  33  92  NE2     30.38F
#OLEX 4N        N/A         36  34  92  CALM    30.40F
#RUGGS 5NE      N/A         32  27  82  CALM    30.52S
#RUGGS 2SW      N/A         31  29  92  CALM    30.48F

$$

ORZ502-503-302110-
BLUE MOUNTAINS

CITY            SKY/WX      TMP DP  RH  WIND    PRES   REMARKS
MEACHAM         SUNNY       35  28  75  VRB6    30.28F
#BATTLE MTN DOT N/A         34  34  100 NE1     N/A
#HARDMAN 10S    N/A         33  31  92  CALM    30.49F
#HEPPNER 15SE   N/A         30  28  92  CALM    30.18S
#LADD CYN SMT   N/A         37  27  67  NW3     N/A
#LADD CREEK ODOTN/A         36  30  79  N1      N/A
#LONG CREEK HS  N/A         32  32  100 CALM    30.26F
#N POWDER DOT   N/A         32  32  100 NE1     N/A
#PIKES PEAK     N/A         26  25  96  S2      27.99S
#TOLLGATE       N/A         40  31  70  SW1     30.14F
#TROY SCHOOL    N/A         36  32  85  CALM    30.27F
#UKIAH          N/A         29  28  96  CALM    30.45F
#WESTON 4E      N/A         28  27  96  CALM    30.42F
$$

ORZ505-302110-
JOHN DAY BASIN

CITY            SKY/WX      TMP DP  RH  WIND    PRES   REMARKS
JOHN DAY        CLOUDY      33  32  96  W5      30.30F
#JOHN DAY KJDY  N/A         38  38  100 NE2     30.53R
#DAYVILLE SCHOOLN/A         37  35  92  CALM    30.30F
#MITCHELL       N/A         35  35  100 CALM    30.45F
#MONUMENT HS    N/A         37  31  79  CALM    30.35F
#MT. VERNON 5SE N/A         31  30  96  CALM    30.25F
#WINLOCK        N/A         36  33  89  CALM    30.38F
$$

ORZ506-302110-
OCHOCO AND JOHN DAY HIGHLANDS

CITY            SKY/WX      TMP DP  RH  WIND    PRES   REMARKS
#BUCK CREEK DOT N/A         32  32  100 NW7     N/A
#HORSE RIDGE DO N/A         31  30  96  NW2     N/A
#KEYES SMT DOT  N/A         32  32  100 NW2     N/A
#PAULINA SCHOOL N/A         50  35  56  E2      30.24F
#PINE MTN OBS   N/A         38  28  67  CALM    N/A
#PRAIRIE CITY   N/A         32  27  82  W1      30.47F
#SENECA         N/A         29  N/A N/A S1      N/A
#SENECA 9NW     N/A         31  30  96  CALM    30.37F
$$

ORZ049-302110-
GRANDE RONDE VALLEY

CITY            SKY/WX      TMP DP  RH  WIND    PRES   REMARKS
LA GRANDE       SUNNY       39  27  62  CALM    30.28F
#COVE           N/A         36  30  79  E1      30.03S
#COVE SCHOOL    N/A         37  32  82  S1      30.25F
#COVE 6NW       N/A         32  30  92  CALM    30.45F
#ELGIN 3N       N/A         44  30  58  CALM    30.06F
#ELGIN 1E       N/A         38  33  82  CALM    N/A
#IMBLER SCHOOL  N/A         37  31  79  CALM    30.23F
#ISLAND CITY 4N N/A         48  44  86  CALM    30.27F
#LADD CYN DOT   N/A         39  30  70  SE2     N/A
#UNION 1S       N/A         38  32  79  CALM    30.32F
$$

ORZ050-302110-
WALLOWA COUNTY

CITY            SKY/WX      TMP DP  RH  WIND    PRES   REMARKS
#ENTERPRISE AP  N/A         43  30  60  CALM    30.18F
#ENTERPRISE HS  N/A         43  34  70  CALM    30.25F
#IMNAHA SCHOOL  N/A         42  32  67  N6      30.30F
#IMNAHA 10S     N/A         41  30  65  CALM    30.27F
#JOSEPH 3N      N/A         39  34  82  CALM    30.27F
#JOSEPH 3W      N/A         39  27  62  CALM    30.06F
#LOSTINE        N/A         41  32  70  CALM    30.21F
#MT HOWARD 8000 N/A         33  -24  7  CALM    30.21S
#PROMISE 1S     N/A         37  32  82  CALM    30.50F
#SHEEP RDG 7000 N/A         34  10  36  CALM    30.29S
#WALLOWA SCHOOL N/A         32  31  96  CALM    31.41F



$$



USA.gov is the U.S. government's official web portal to all federal, state and local government web resources and services.